Location: Cicognara
(44.9500°N, 10.4667°E)
Time: 23:34:33
(UTC+00:00)

Cosmos 968 Rocket - Pass Details

Date: 20 June 2021
Orbit: 741 x 770 km, 74.0° (Epoch: 23 July)

Event Time Altitude Azimuth Distance (km) Brightness Sun altitude
Rises 21:23:24 0° 336° (NNW) 3,190 8.5 -16.6°
Reaches altitude 10° 21:25:46 10° 335° (NNW) 2,264 7.3 -16.8°
Maximum altitude 21:30:52 71° 252° (WSW) 789 3.5 -17.2°
Enters shadow 21:33:28 29° 175° (S) 1,342 4.2 -17.4°
